Huangshi, China
Current Conditions -  °F | °C
As of 1:00 AM on Friday 24 Oct 2014 (Local Time) from ZHHH Reporting Station
Haze Haze  
Wind Chill: 57°   Ceiling: Unl
Heat Index: 57°   Visibility: 1.8mi
Dew Point: 57°   Wind: 0mph
Humidity: 100%   Direction: NA
Pressure: 30.03"   Gusts: NA
Location:  30.22°N, 115.1°E
Report Text: ZHHH 231700Z 00000MPS 3000 BR NSC 14/14 Q1017 NOSIG
Loading
Personal Weather Stations






























Interactive Weather Map
Tropical Storm Tracking
New forecast layout! Learn more

10-Day Weather Forecast

Advertisements
Track Severe Weather on mobile